Orbital Elements at Epoch 2459000.5 (2020-May-31.0) TDB
Reference: JPL 16 (heliocentric ecliptic J2000)
Element | Value | Uncertainty (1-sigma) | Units |
e | .1245920930329642 | 5.4614e-08 | |
a | 2.393990003833577 | 1.3064e-08 | au |
q | 2.095717778555958 | 1.291e-07 | au |
i | 2.527056487457759 | 5.7122e-06 | deg |
node | 182.5326436144635 | 0.00010556 | deg |
peri | 321.4138682031917 | 0.00010841 | deg |
M | 39.45995056845124 | 2.1049e-05 | deg |
tp | 2458852.201771912142 (2020-Jan-03.70177191) | 7.9225e-05 | TDB |
period | 1352.950557274968 3.70 | 1.1075e-05 3.032e-08 | d yr |
n | .266085111583893 | 2.1781e-09 | deg/d |
Q | 2.692262229111196 | 1.4692e-08 | au |
|
| | Orbit Determination Parameters
Additional Information
|